Terminal Aerodrome Forecast
Issued by NWS

Home | Current Version | Previous Version | Graphics & Text | Print | Product List | Glossary On
Versions: 1 2 3 4 5 6 7 8 9 10 11 12 13 14 15 16 17 18 19 20
000
FTUS43 KFGF 201100
TAFBJI
TAF
KBJI 201120Z 2012/2112 29007KT P6SM SKC
     FM201300 32004KT P6SM BKN012
     FM202300 04008KT P6SM SCT015
     FM210900 12006KT P6SM SCT200=

USA.gov is the U.S. government's official web portal to all federal, state and local government web resources and services.